| time (UTC) | temp F | wind direction | speed knots | gust knots | rain 1hr in | rain 24hr in | rain mn in | humidity % | barometer mb |
| 20260504033126 | 65 | 360 | 0.9 | 3.5 | 0.00 | 0.04 | 0.04 | 74 | 1018.2 |
| 20260504031558 | 65 | 360 | 0.0 | 3.5 | 0.00 | 0.04 | 0.04 | 73 | 1018.1 |
| 20260504030052 | 66 | 360 | 0.9 | 3.5 | 0.00 | 0.04 | 0.04 | 71 | 1018.2 |
| 20260504024553 | 66 | 360 | 1.7 | 4.3 | 0.00 | 0.04 | 0.04 | 70 | 1018.0 |
| 20260504023102 | 67 | 360 | 2.6 | 4.3 | 0.00 | 0.04 | 0.04 | 69 | 1017.9 |
| 20260504021556 | 68 | 360 | 1.7 | 4.3 | 0.00 | 0.04 | 0.04 | 68 | 1017.8 |
| 20260504020100 | 68 | 360 | 2.6 | 7.0 | 0.00 | 0.04 | 0.04 | 67 | 1017.4 |
| 20260504014558 | 69 | 360 | 2.6 | 5.2 | 0.00 | 0.05 | 0.04 | 65 | 1017.5 |
| 20260504013106 | 70 | 360 | 4.3 | 9.6 | 0.00 | 0.05 | 0.04 | 62 | 1017.4 |
| 20260504011553 | 71 | 360 | 5.2 | 10.4 | 0.00 | 0.05 | 0.04 | 60 | 1017.2 |
| 20260504010111 | 72 | 360 | 6.1 | 10.4 | 0.00 | 0.05 | 0.04 | 59 | 1017.2 |
| 20260504004612 | 73 | 360 | 7.0 | 12.2 | 0.00 | 0.05 | 0.04 | 57 | 1017.1 |
| 20260504003053 | 74 | 253 | 7.0 | 13.9 | 0.00 | 0.05 | 0.04 | 55 | 1017.2 |
| 20260504001601 | 75 | 271 | 8.7 | 13.9 | 0.00 | 0.05 | 0.04 | 51 | 1017.3 |
| 20260504000056 | 76 | 292 | 7.0 | 11.3 | 0.00 | 0.05 | 0.04 | 49 | 1017.3 |
| 20260503234554 | 77 | 278 | 8.7 | 13.0 | 0.00 | 0.05 | 0.04 | 45 | 1017.2 |
| 20260503233057 | 77 | 247 | 9.6 | 13.0 | 0.00 | 0.05 | 0.04 | 42 | 1017.1 |
| 20260503231559 | 78 | 267 | 8.7 | 13.9 | 0.01 | 0.05 | 0.04 | 40 | 1017.0 |
| 20260503224559 | 79 | 254 | 3.5 | 8.7 | 0.01 | 0.05 | 0.04 | 37 | 1017.4 |
| 20260503223100 | 79 | 285 | 3.5 | 10.4 | 0.01 | 0.05 | 0.04 | 39 | 1017.7 |
| 20260503221557 | 79 | 254 | 5.2 | 11.3 | 0.00 | 0.04 | 0.03 | 42 | 1017.7 |
| 20260503220055 | 80 | 258 | 6.1 | 11.3 | 0.00 | 0.04 | 0.03 | 41 | 1017.9 |
| 20260503214559 | 80 | 263 | 6.1 | 13.0 | 0.00 | 0.04 | 0.03 | 39 | 1018.1 |
| 20260503213111 | 80 | 259 | 6.1 | 10.4 | 0.00 | 0.04 | 0.03 | 40 | 1018.4 |
| 20260503211554 | 80 | 279 | 6.1 | 9.6 | 0.00 | 0.04 | 0.03 | 39 | 1018.6 |
| 20260503210100 | 80 | 259 | 5.2 | 9.6 | 0.00 | 0.04 | 0.03 | 38 | 1018.7 |
| 20260503204600 | 80 | 252 | 3.5 | 12.2 | 0.00 | 0.05 | 0.03 | 38 | 1019.1 |
| 20260503203105 | 80 | 280 | 7.8 | 12.2 | 0.00 | 0.05 | 0.03 | 37 | 1019.5 |
| 20260503201604 | 80 | 246 | 2.6 | 7.8 | 0.00 | 0.05 | 0.03 | 42 | 1019.6 |
| 20260503200101 | 80 | 285 | 6.1 | 8.7 | 0.00 | 0.05 | 0.03 | 39 | 1019.8 |
| 20260503194602 | 81 | 238 | 1.7 | 8.7 | 0.00 | 0.05 | 0.03 | 36 | 1020.0 |
| 20260503193110 | 79 | 301 | 1.7 | 12.2 | 0.01 | 0.05 | 0.03 | 36 | 1020.2 |
| 20260503191635 | 80 | 288 | 4.3 | 9.6 | 0.01 | 0.05 | 0.03 | 34 | 1020.4 |
| 20260503190103 | 78 | 267 | 0.9 | 9.6 | 0.01 | 0.05 | 0.03 | 38 | 1020.5 |
| 20260503184559 | 79 | 256 | 4.3 | 10.4 | 0.01 | 0.06 | 0.03 | 37 | 1020.9 |
| 20260503183112 | 77 | 0 | 0.9 | 13.9 | 0.00 | 0.05 | 0.02 | 38 | 1021.2 |
| 20260503181555 | 78 | 274 | 8.7 | 13.0 | 0.00 | 0.05 | 0.02 | 44 | 1021.4 |
| 20260503180054 | 78 | 254 | 0.0 | 11.3 | 0.00 | 0.05 | 0.02 | 44 | 1021.7 |
| 20260503174554 | 77 | 257 | 4.3 | 9.6 | 0.00 | 0.05 | 0.02 | 41 | 1022.0 |
| 20260503173116 | 76 | 285 | 2.6 | 8.7 | 0.00 | 0.05 | 0.02 | 46 | 1022.1 |
| 20260503171554 | 76 | 289 | 4.3 | 12.2 | 0.01 | 0.05 | 0.02 | 44 | 1022.5 |
| 20260503120114 | 52 | 0 | 0.0 | 0.0 | 0.01 | 0.06 | 0.01 | 91 | 1021.7 |
| 20260503100105 | 53 | 0 | 0.0 | 0.0 | 0.00 | 0.06 | 0.00 | 91 | 1020.9 |
| 20260503081556 | 54 | 0 | 0.0 | 0.0 | 0.00 | 0.07 | 0.00 | 90 | 1020.9 |
| 20260503071554 | 55 | 0 | 0.0 | 0.0 | 0.00 | 0.07 | 0.00 | 90 | 1021.1 |
| 20260503070104 | 55 | 0 | 0.0 | 0.0 | 0.00 | 0.07 | 0.00 | 90 | 1021.1 |
| 20260503054552 | 56 | 0 | 0.0 | 0.0 | 0.00 | 0.08 | 0.00 | 88 | 1021.4 |
| 20260503053051 | 57 | 0 | 0.0 | 0.0 | 0.00 | 0.08 | 0.00 | 88 | 1021.2 |
| 20260503051553 | 57 | 0 | 0.0 | 0.0 | 0.00 | 0.08 | 0.00 | 88 | 1021.1 |
| 20260503050055 | 56 | 0 | 0.0 | 0.0 | 0.00 | 0.08 | 0.00 | 87 | 1021.0 |
| 20260503044553 | 57 | 0 | 0.0 | 0.0 | 0.00 | 0.09 | 0.08 | 87 | 1021.2 |
| 20260503043051 | 57 | 0 | 0.0 | 0.0 | 0.00 | 0.09 | 0.08 | 86 | 1021.3 |
| 20260503041604 | 58 | 0 | 0.0 | 0.0 | 0.00 | 0.09 | 0.08 | 84 | 1021.1 |
| 20260503040058 | 58 | 0 | 0.0 | 0.0 | 0.00 | 0.09 | 0.08 | 83 | 1021.0 |
| 20260503034605 | 58 | 0 | 0.0 | 0.0 | 0.00 | 0.10 | 0.08 | 84 | 1020.9 |